Regional Weather Roundup
Issued by NWS

Home | Current Version | Previous Version | Text Only | Print | Product List | Glossary Off
Versions: 1 2 3 4 5 6 7 8 9 10 11 12 13 14 15 16 17 18 19 20 21 22 23 24 25 26 27 28 29 30 31 32 33 34 35 36 37 38 39 40 41 42 43 44 45 46 47 48 49 50

537
ASUS44 KJAN 020303
RWRMS

MISSISSIPPI HOURLY WEATHER ROUNDUP
NATIONAL WEATHER SERVICE JACKSON MS
900 PM CST SUN MAR 01 2015

NOTE: "FAIR: INDICATES FEW OR NO CLOUDS BELOW 12,000 FEET WITH NO
SIGNIFICANT WEATHER AND/OR OBSTRUCTIONS TO VISIBILITY.

MSZ001>002-007>008-010>013-018>021-025>028-034>036-020400-
NORTHWEST MISSISSIPPI

CITY           SKY/WX    TMP DP  RH WIND       PRES   REMARKS
CLARKSDALE     CLOUDY    39  39 100 N15       30.37R WCI  31
CLEVELAND      LGT RAIN  43  43 100 N12       30.34R
GREENWOOD        N/A    N/A N/A N/A MISG      30.31S
GREENVILLE     LGT RAIN  44  42  93 N9        30.33R FOG
OLIVE BRANCH   CLOUDY    37 N/A N/A N9        30.36S WCI  31
OXFORD         CLOUDY    48  48 100 CALM      30.34F FOG
TUNICA         CLOUDY    37  36  93 N13       30.39R FOG     WCI  29
$$

MSZ003>006-009-014>017-022>024-029>033-037>039-020400-
NORTHEAST MISSISSIPPI

CITY           SKY/WX    TMP DP  RH WIND       PRES   REMARKS
COLUMBUS AFB   CLOUDY    54  54 100 CALM      30.31R
CORINTH        LGT RAIN  50  50 100 CALM      30.34R VSB 1/2
GOLDN TRIANGLE CLOUDY    54  50  87 S8        30.30S
STARKVILLE     CLOUDY    52  52 100 SE5       30.31R FOG
TUPELO         CLOUDY    52  50  93 NE6       30.34R FOG
$$

MSZ040-058-020400-
CENTRAL MISSISSIPPI

CITY           SKY/WX    TMP DP  RH WIND       PRES   REMARKS
JACKSON INTL   LGT RAIN  58  57  97 S5        30.29R
JACKSON HAWKNS LGT RAIN  58  57  97 SE6       30.28S FOG
MERIDIAN KEY   CLOUDY    55  54  96 W8        30.33R
MERIDIAN NAS   CLOUDY    55  53  93 E3        30.31R
VICKSBURG      CLOUDY    50  48  93 N5        30.30R
$$

MSZ059>079-020400-
SOUTH MISSISSIPPI

CITY           SKY/WX    TMP DP  RH WIND       PRES   REMARKS
BROOKHAVEN     CLOUDY    59  59 100 CALM      30.29S
HATTIESBURG    HVY RAIN  58  57  97 SE5       30.37R FOG
MCCOMB         RAIN      62  61  96 SE9       30.29R FOG
NATCHEZ        CLOUDY    55  54  94 CALM      30.29S
PINE BELT      CLOUDY    57  54  88 E7        30.34F
$$

MSZ080>082-020400-
COASTAL MISSISSIPPI

CITY           SKY/WX    TMP DP  RH WIND       PRES   REMARKS
BILOXI         CLOUDY    59  59 100 E9        30.31R FOG
PASCAGOULA     CLOUDY    58  57  97 E6        30.33R FOG
GULFPORT       CLOUDY    60  59  96 E10       30.31R FOG
$$



USA.gov is the U.S. government's official web portal to all federal, state and local government web resources and services.